TimeMST,TemperatureF,Dew PointF,Humidity,Sea Level PressureIn,VisibilityMPH,Wind Direction,Wind SpeedMPH,Gust SpeedMPH,PrecipitationIn,Events,Conditions,WindDirDegrees,DateUTC
12:51 AM,84.9,50.0,30,29.80,10.0,South,9.2,-,N/A,,Clear,190,2013-08-01 07:51:00
1:51 AM,82.0,53.1,37,29.80,10.0,SE,9.2,-,N/A,,Overcast,130,2013-08-01 08:51:00
2:51 AM,79.0,54.0,42,29.79,10.0,SE,4.6,-,N/A,,Partly Cloudy,140,2013-08-01 09:51:00
3:51 AM,77.0,54.0,45,29.79,10.0,SSE,5.8,-,N/A,,Clear,150,2013-08-01 10:51:00
4:51 AM,77.0,53.1,43,29.79,10.0,SE,8.1,-,N/A,,Clear,140,2013-08-01 11:51:00
5:51 AM,75.9,54.0,46,29.81,10.0,SE,11.5,-,N/A,,Clear,140,2013-08-01 12:51:00
6:51 AM,82.0,52.0,35,29.81,10.0,SE,11.5,-,N/A,,Clear,130,2013-08-01 13:51:00
7:51 AM,87.1,51.1,29,29.82,10.0,SSW,6.9,-,N/A,,Clear,200,2013-08-01 14:51:00
8:51 AM,90.0,48.0,24,29.81,10.0,SW,13.8,20.7,N/A,,Clear,220,2013-08-01 15:51:00
9:51 AM,93.0,52.0,25,29.81,10.0,SW,16.1,21.9,N/A,,Clear,220,2013-08-01 16:51:00
10:51 AM,95.0,51.1,22,29.80,10.0,SSW,18.4,28.8,N/A,,Clear,200,2013-08-01 17:51:00
11:51 AM,95.0,50.0,22,29.79,10.0,SSW,19.6,28.8,N/A,,Clear,210,2013-08-01 18:51:00
12:51 PM,98.1,50.0,20,29.77,10.0,SSW,20.7,35.7,N/A,,Clear,210,2013-08-01 19:51:00
1:51 PM,99.0,50.0,19,29.75,10.0,SW,24.2,32.2,N/A,,Clear,220,2013-08-01 20:51:00
2:51 PM,99.0,51.1,20,29.74,10.0,SW,26.5,36.8,N/A,,Clear,220,2013-08-01 21:51:00
3:51 PM,99.0,50.0,19,29.71,10.0,SSW,26.5,31.1,N/A,,Clear,200,2013-08-01 22:51:00
4:51 PM,97.0,48.0,19,29.69,10.0,SW,16.1,32.2,N/A,,Clear,230,2013-08-01 23:51:00
5:51 PM,96.1,46.0,18,29.69,10.0,SSW,23.0,31.1,N/A,,Clear,210,2013-08-02 00:51:00
6:51 PM,93.0,46.9,20,29.69,10.0,SSW,20.7,31.1,N/A,,Clear,210,2013-08-02 01:51:00
7:51 PM,91.0,46.9,22,29.70,10.0,SSW,15.0,-,N/A,,Clear,210,2013-08-02 02:51:00
8:51 PM,88.0,46.0,23,29.72,10.0,SSW,8.1,-,N/A,,Clear,200,2013-08-02 03:51:00
9:51 PM,84.9,46.9,27,29.73,10.0,SSW,11.5,-,N/A,,Clear,210,2013-08-02 04:51:00
10:51 PM,82.0,46.9,29,29.73,10.0,SSW,8.1,-,N/A,,Clear,200,2013-08-02 05:51:00
11:51 PM,81.0,46.9,30,29.74,10.0,SSW,8.1,-,N/A,,Clear,200,2013-08-02 06:51:00